Homer, AK

12:55 PM AKST on November 21, 2017 (GMT -0900)
Homer

Weather History for PAHO - April, 2014

Change the Weather History Date:

Wednesday, April 2, 2014

  Actual Average Record
Temperature  
Mean Temperature 36 °F -  
Max Temperature 45 °F 40 °F 51 °F (1958)
Min Temperature 28 °F 26 °F -6 °F (1944)
Degree Days  
Heating Degree Days 28    
Moisture  
Dew Point 21 °F    
Average Humidity 54    
Maximum Humidity 69    
Minimum Humidity 35    
Precipitation  
Precipitation 0.00 in - - ()
Sea Level Pressure  
Sea Level Pressure 29.87 in    
Wind  
Wind Speed 4 mph (East)    
Max Wind Speed 10 mph    
Max Gust Speed -    
Visibility 10 miles    
Events      
Averages and records for this station are not official NWS values.
T = Trace of Precipitation, MM = Missing Value Source: NWS Daily Summary

Daily Weather History Graph

Daily Weather History Graph

Search for Another Location

Airport or City:

Trip Planner

Search our weather history database for the weather conditions in past years. The results will help you decide how hot, cold, wet, or windy it might be!

Date:

Astronomy

Apr. 02, 2014 Rise Set
Actual Time 7:27 AM AKDT 8:52 PM AKDT
Civil Twilight 6:45 AM AKDT 9:35 PM AKDT
Nautical Twilight 5:52 AM AKDT 10:28 PM AKDT
Astronomical Twilight 4:50 AM AKDT 11:31 PM AKDT
Moon 8:37 AM AKDT (4/2) 12:02 AM AKDT (4/2)
Length of Visible Light 14h 49m
Length of Day
13h 24m
Waxing Crescent, 11% of the Moon is Illuminated
Apr 2
Waxing Crescent
Apr 7
First Quarter
Apr 14
Full
Apr 21
Last Quarter
Apr 28
New

Hourly Weather History & Observations

Time (AKDT) Temp. Windchill Dew Point Humidity Pressure Visibility Wind Dir Wind Speed Gust Speed Precip Events Conditions
12:53 AM 33.1 °F - 21.9 °F 64% 29.91 in 10.0 mi Calm Calm - N/A   Overcast
1:53 AM 33.1 °F 30.0 °F 21.9 °F 64% 29.91 in 10.0 mi NNE 3.5 mph - N/A   Overcast
2:53 AM 28.9 °F - 19.9 °F 69% 29.90 in 10.0 mi Calm Calm - N/A   Partly Cloudy
4:53 AM 33.1 °F - 19.9 °F 59% 29.90 in 10.0 mi Calm Calm - N/A   Overcast
5:53 AM 30.9 °F 25.2 °F 21.0 °F 67% 29.89 in 10.0 mi NNE 5.8 mph - N/A   Overcast
6:53 AM 33.1 °F 27.7 °F 19.9 °F 59% 29.90 in 10.0 mi ENE 5.8 mph - N/A   Overcast
7:53 AM 30.0 °F - 19.9 °F 66% 29.89 in 10.0 mi Calm Calm - N/A   Overcast
8:53 AM 35.1 °F 28.6 °F 23.0 °F 61% 29.89 in 10.0 mi East 8.1 mph - N/A   Partly Cloudy
9:53 AM 36.0 °F 29.0 °F 21.9 °F 57% 29.89 in 10.0 mi ENE 9.2 mph - N/A   Clear
10:53 AM 37.9 °F 30.9 °F 21.0 °F 51% 29.89 in 10.0 mi ENE 10.4 mph - N/A   Clear
11:53 AM 41.0 °F 35.8 °F 21.0 °F 45% 29.88 in 10.0 mi East 8.1 mph - N/A   Clear
12:53 PM 42.1 °F 38.4 °F 18.0 °F 38% 29.88 in 10.0 mi ESE 5.8 mph - N/A   Clear
1:53 PM 43.0 °F 38.8 °F 18.0 °F 37% 29.88 in 10.0 mi East 6.9 mph - N/A   Clear
2:53 PM 44.1 °F 39.5 °F 18.0 °F 35% 29.87 in 10.0 mi East 8.1 mph - N/A   Clear
3:53 PM 45.0 °F 41.2 °F 19.0 °F 36% 29.86 in 10.0 mi East 6.9 mph - N/A   Partly Cloudy
4:53 PM 43.0 °F 39.5 °F 19.0 °F 38% 29.85 in 10.0 mi East 5.8 mph - N/A   Overcast
6:53 PM 43.0 °F 39.5 °F 19.9 °F 40% 29.83 in 10.0 mi East 5.8 mph - N/A   Overcast
7:53 PM 41.0 °F 39.0 °F 23.0 °F 49% 29.83 in 10.0 mi South 3.5 mph - N/A   Partly Cloudy
8:53 PM 39.0 °F 35.7 °F 25.0 °F 57% 29.83 in 10.0 mi SSE 4.6 mph - N/A   Clear
9:53 PM 36.0 °F 33.3 °F 21.9 °F 57% 29.83 in 10.0 mi Variable 3.5 mph - N/A   Clear
10:53 PM 32.0 °F 27.5 °F 21.0 °F 64% 29.82 in 10.0 mi NNE 4.6 mph - N/A   Clear
11:53 PM 30.9 °F - 21.0 °F 67% 29.82 in 10.0 mi Calm Calm - N/A   Clear